Theta_e
303 301 303 303 303 308 331 339 337 338 335 333 330 332 331 331 332 332 332 332 333 332 330 331 331 332 330 329 329 327 325 326 326 323 320 320 321 322 323 324 325 326 326
298 301 301 302 305 321 332 338 339 338 337 336 335 334 334 334 334 335 334 334 334 333 332 331 333 332 332 330 329 328 324 326 326 322 318 316 319 318 320 319 321 321 320
299 301 301 301 301 310 332 337 339 340 339 339 337 333 334 332 332 332 334 335 335 335 334 333 333 334 333 332 330 330 329 325 325 323 322 314 315 314 314 316 316 317 317
298 299 300 300 300 304 325 335 338 340 341 340 338 336 334 333 336 336 336 335 337 336 336 335 334 335 336 334 333 332 331 328 325 322 320 318 318 315 312 312 312 314 315
297 298 298 300 303 301 312 332 336 339 340 341 340 338 336 336 332 334 334 335 335 338 337 337 335 335 336 336 333 331 331 330 325 323 320 318 315 314 314 312 313 310 313
297 297 298 298 301 307 312 327 332 335 339 340 339 338 337 334 332 332 333 333 334 337 338 337 337 336 336 335 333 332 331 330 329 327 322 319 318 317 315 314 313 314 315
296 298 303 311 313 316 317 324 331 330 335 338 338 338 337 335 334 333 334 332 332 332 335 335 335 335 335 335 333 330 330 329 328 326 325 323 321 320 319 317 315 313 310
297 299 308 314 317 319 320 323 326 325 325 332 334 335 336 334 336 334 335 335 334 334 335 334 335 334 333 332 332 332 333 331 330 327 326 324 323 322 320 318 314 307 307
300 300 311 319 320 320 322 324 323 323 323 320 321 325 331 333 333 330 332 334 331 329 330 332 332 331 331 331 331 330 327 329 328 327 326 324 323 321 320 318 317 314 307
302 302 315 321 322 321 319 321 322 324 323 323 323 323 325 326 326 326 328 328 329 329 331 331 332 331 331 329 328 327 326 325 323 322 322 321 321 320 320 318 315 314 312
300 309 317 322 322 319 319 319 321 322 322 322 322 323 323 324 324 324 324 325 326 328 330 330 330 329 328 327 326 325 323 323 320 319 319 316 318 317 316 315 313 312 309
308 314 319 321 320 320 318 320 318 320 324 327 327 326 326 327 325 324 324 325 326 328 328 328 327 326 325 324 323 320 321 319 316 314 314 314 312 310 309 308 307 307 307
307 317 318 320 321 321 320 319 318 319 320 324 324 325 326 326 326 325 325 325 326 326 326 326 324 323 321 319 317 317 315 314 313 312 311 309 308 306 305 305 306 306 306
305 316 317 319 321 321 321 320 319 320 323 323 323 323 325 325 324 324 324 324 324 323 323 323 320 318 316 315 314 313 311 310 309 308 307 307 306 303 302 303 303 303 304
300 309 318 319 319 319 320 319 320 320 324 325 325 325 324 324 322 321 321 319 319 318 317 315 314 313 312 311 311 310 308 307 305 304 304 301 301 300 299 301 300 300 300
302 302 313 320 320 320 320 321 321 321 323 322 323 323 321 320 319 316 315 314 313 312 312 311 310 308 306 298 299 303 305 302 300 299 298 298 298 297 296 296 294 295 297
302 305 311 318 320 321 321 319 320 321 322 322 322 320 319 318 316 314 313 311 310 309 307 306 306 304 300 294 295 296 298 297 296 295 294 294 294 293 293 292 292 292 291
302 305 311 317 320 320 318 316 316 319 320 321 319 318 317 314 313 312 309 307 307 306 305 303 302 299 296 292 292 293 295 293 291 289 291 292 292 291 291 290 289 288 289
303 306 310 316 320 320 320 318 316 318 319 318 317 316 314 311 311 309 307 306 304 302 300 299 299 296 290 291 291 292 290 288 287 287 287 287 287 290 292 287 287 287 287
302 304 305 308 316 319 318 317 316 317 317 317 315 313 312 309 306 304 301 300 302 299 298 296 294 293 292 291 291 292 288 287 287 286 286 288 287 288 289 286 286 286 287
303 302 304 305 310 315 317 316 315 315 316 314 310 309 308 304 300 298 299 298 297 296 295 294 293 293 293 291 292 292 289 287 286 285 285 285 288 289 290 290 286 286 287
303 303 303 306 307 314 316 315 314 309 305 305 302 300 300 299 299 297 297 296 295 292 289 289 288 289 288 289 290 290 289 288 286 285 285 286 288 289 289 287 287 287 286
302 304 306 305 306 311 315 312 305 302 301 302 301 300 300 298 297 296 295 293 294 292 289 288 288 287 286 288 289 289 289 288 286 286 287 287 288 287 284 286 286 285 285
303 304 305 304 302 301 302 300 299 300 301 300 299 298 297 295 295 294 293 292 291 290 288 287 287 287 287 287 287 286 287 285 285 286 286 285 283 279 281 283 284 283 285
301 302 300 299 297 296 296 298 299 299 298 297 297 296 295 294 293 293 293 292 292 291 288 287 287 286 286 286 288 286 285 283 282 278 276 281 280 279 281 282 283 284 285
297 296 294 294 295 296 296 297 299 298 296 295 294 293 292 292 292 291 289 288 289 289 290 289 288 286 287 287 288 288 287 287 285 279 281 281 281 281 283 283 283 283 284
Wind_Speed
18 10 11 14 8 10 14 16 17 16 13 11 12 10 13 11 10 10 13 13 13 13 12 9 7 9 9 9 9 6 6 7 3 3 1 2 3 4 3 3 3 3 3
8 8 7 6 9 13 17 15 18 15 16 13 13 8 9 8 8 8 9 12 13 13 13 13 10 11 8 8 8 10 3 4 5 4 1 2 3 3 4 2 3 4 2
12 9 8 10 9 10 14 17 18 20 18 16 9 3 5 3 5 7 9 12 14 14 14 14 12 11 10 10 9 9 11 6 5 5 4 2 5 1 1 4 3 3 3
8 8 9 8 10 13 13 15 16 17 16 15 12 16 12 10 10 10 8 9 14 14 13 13 13 12 10 11 10 9 9 6 7 1 1 2 3 4 1 1 3 3 5
12 12 10 11 13 9 12 14 13 13 14 16 14 12 11 10 2 4 8 9 9 14 14 14 13 12 10 11 10 10 12 10 5 5 3 2 1 1 2 3 3 2 4
10 10 10 9 9 7 10 11 14 14 14 15 14 16 17 9 7 6 8 7 7 9 12 13 12 12 11 11 11 12 13 12 10 8 6 5 5 5 4 3 3 3 2
7 7 8 7 8 9 10 11 14 13 14 16 15 15 14 11 12 10 9 8 7 5 10 11 11 10 12 11 9 10 10 11 10 9 7 4 4 3 2 2 2 4 0
8 9 10 8 8 9 11 12 14 12 11 13 13 11 10 7 8 8 7 8 8 9 9 10 10 12 10 9 9 8 8 8 8 9 7 6 5 3 4 3 4 1 2
13 13 9 10 8 9 12 14 12 8 9 9 7 7 8 8 8 7 6 6 6 5 8 10 10 10 10 10 10 8 7 6 7 9 8 5 5 5 3 2 4 4 4
16 9 10 12 11 8 5 8 7 8 7 7 6 5 7 6 6 5 7 6 4 5 6 7 8 8 8 8 8 6 7 7 4 4 7 5 4 4 5 4 3 3 3
12 9 10 11 10 7 8 8 8 9 7 6 6 6 5 6 6 5 5 5 4 5 6 7 6 8 8 7 6 6 7 8 7 5 6 4 4 4 3 3 3 3 3
8 3 5 9 11 10 8 9 8 10 11 11 10 8 7 6 6 5 5 5 5 5 6 6 6 6 6 7 10 10 6 9 6 6 6 6 4 5 4 3 4 4 4
1 4 5 8 10 10 9 8 8 8 9 11 10 10 7 6 6 6 6 6 6 6 6 7 7 7 7 7 6 6 8 8 8 6 6 6 6 5 3 3 3 1 1
6 6 2 5 8 9 10 10 9 8 9 9 10 9 8 7 7 6 7 7 6 7 6 6 6 7 7 8 7 9 7 7 6 6 5 5 4 4 3 3 2 0 1
7 9 11 10 8 8 9 8 9 11 12 11 9 9 7 8 7 6 6 6 6 5 6 7 7 7 7 5 7 7 7 7 7 6 6 6 7 9 7 3 1 0 1
9 10 11 13 14 15 14 13 13 15 14 14 12 9 9 10 8 7 6 7 6 7 7 8 8 8 6 11 12 7 6 7 7 6 6 6 8 8 7 5 3 2 3
10 10 12 15 16 17 16 17 16 14 15 13 11 11 10 11 11 10 9 8 7 8 9 9 9 10 9 15 14 12 6 7 6 6 5 5 4 5 3 3 3 5 5
10 10 11 13 14 11 9 7 7 12 13 13 13 11 11 10 11 12 11 8 8 9 9 9 9 10 7 15 13 12 7 7 7 6 4 3 3 4 4 3 5 4 5
15 15 12 14 14 15 16 15 12 13 13 12 12 12 12 12 12 13 12 10 10 9 8 8 11 12 7 14 13 10 7 5 4 3 5 4 3 2 4 3 4 5 6
10 12 10 4 9 15 14 16 16 16 16 17 13 12 12 13 12 12 12 6 8 10 10 11 9 11 9 10 11 8 4 3 2 1 1 2 3 6 7 3 3 7 5
12 9 8 11 15 11 15 17 15 19 17 13 13 13 12 12 12 10 11 11 11 10 10 10 7 7 7 6 9 8 3 3 2 2 1 1 4 7 8 8 4 6 4
18 15 8 10 8 11 15 16 18 10 10 13 13 14 13 11 10 15 11 11 12 10 7 8 6 4 4 6 4 8 7 5 3 3 1 2 7 7 7 8 10 11 7
19 14 10 6 6 9 13 13 9 14 17 16 14 14 13 11 12 14 13 10 8 8 6 5 4 2 2 3 5 4 5 7 3 3 5 7 9 9 5 9 10 9 5
16 6 8 8 5 6 8 11 14 14 15 16 15 13 14 13 11 8 8 8 6 6 5 4 3 2 3 3 3 2 1 4 4 4 4 3 4 4 5 5 7 6 5
8 9 10 10 9 10 13 14 15 18 16 16 15 13 11 11 11 8 6 6 5 6 4 3 3 3 1 3 5 5 3 3 4 2 1 0 1 3 4 4 4 3 4
10 10 12 14 13 14 14 14 15 16 18 15 12 12 13 9 8 8 7 10 8 7 6 6 4 1 3 6 6 7 7 6 5 2 3 4 5 6 5 4 5 3 5
Wind_Direction
258 223 210 218 196 184 197 190 184 189 176 181 182 187 199 195 202 203 201 197 201 201 200 204 188 190 197 201 192 198 197 223 184 102 353 280 232 242 233 178 174 189 171
264 242 230 201 188 188 189 184 194 181 189 189 196 195 189 206 205 204 205 201 201 202 202 204 199 197 195 200 195 191 162 209 174 162 105 245 298 264 235 209 188 189 182
240 248 233 221 199 192 190 188 189 187 192 194 176 117 111 94 184 203 204 202 198 202 205 204 204 197 201 204 199 193 206 197 201 216 161 135 225 187 164 226 218 220 225
244 247 250 237 211 217 195 195 191 189 186 184 182 187 191 188 208 204 202 198 201 204 205 205 203 202 199 206 198 195 199 165 200 213 236 20 158 176 265 274 252 220 237
230 238 236 235 244 199 191 191 185 185 181 179 188 188 200 213 165 167 183 197 200 208 207 206 201 202 203 207 194 190 199 205 171 176 153 186 299 344 161 189 228 272 232
248 238 244 244 241 195 173 176 174 180 177 177 182 193 203 194 179 182 190 197 199 206 210 209 206 212 211 211 202 196 198 196 210 197 188 174 176 206 200 217 173 188 254
264 260 243 223 215 191 173 171 173 177 178 180 187 197 202 194 195 188 194 182 194 200 211 195 204 206 208 212 201 192 198 199 204 206 207 212 200 179 210 197 177 216 73
255 245 235 221 204 187 171 165 170 169 176 179 191 194 196 194 200 195 193 197 200 204 198 203 208 211 200 200 200 204 204 189 200 196 192 193 191 183 197 169 154 135 243
256 231 214 200 189 190 179 165 154 157 173 176 172 186 191 194 198 191 191 199 189 180 184 195 199 196 187 188 189 189 178 179 179 194 188 183 196 182 136 178 146 159 166
272 221 194 195 189 179 168 129 141 155 156 154 164 176 181 178 170 163 185 182 167 156 173 191 199 191 190 174 176 179 171 154 166 173 168 160 157 154 144 187 154 133 144
268 227 200 189 174 141 162 150 150 149 151 152 158 159 159 166 161 173 176 176 147 161 175 176 189 184 177 170 181 183 170 153 160 160 142 128 149 140 139 131 119 132 141
281 226 173 160 157 160 166 165 161 160 169 175 174 169 160 157 152 160 163 154 169 168 165 169 170 171 170 175 168 152 173 142 152 132 129 136 124 124 138 137 150 165 180
109 134 145 170 170 171 172 169 174 169 170 171 171 176 155 177 168 157 160 168 167 173 174 171 171 165 162 148 136 133 129 127 133 139 137 147 131 129 138 147 144 177 156
216 167 220 198 189 193 183 183 180 176 177 160 162 169 159 164 182 163 168 169 167 163 163 159 145 139 134 124 119 120 125 110 109 120 115 118 122 130 108 77 90 94 247
231 201 189 206 209 212 193 187 186 189 175 176 171 176 157 156 151 149 147 135 136 128 122 119 112 112 105 103 111 108 112 109 96 76 76 70 73 74 78 98 118 276 266
234 226 218 215 201 201 207 193 191 193 177 179 176 166 169 149 145 138 131 121 115 112 113 102 102 89 80 99 92 100 97 84 91 96 70 56 55 52 48 33 21 298 250
235 201 203 207 215 208 196 205 194 180 180 179 170 172 166 156 148 138 131 127 123 117 106 103 107 104 98 92 89 89 91 95 95 90 78 62 57 65 58 8 314 269 272
248 223 203 205 209 194 186 166 175 188 189 187 179 166 159 156 144 137 132 123 123 117 113 106 101 100 98 99 93 90 91 86 71 73 80 55 358 29 11 302 271 277 276
267 254 221 203 196 189 189 177 174 187 186 187 186 169 158 152 150 140 139 136 128 121 113 118 117 109 93 99 94 88 85 83 80 70 41 37 338 345 287 248 269 282 274
241 248 246 229 185 202 177 176 186 186 193 192 181 162 154 151 150 139 131 120 128 129 126 115 112 115 115 114 105 102 97 80 34 10 137 269 251 281 278 240 254 269 274
255 232 225 214 210 188 177 188 185 196 191 165 154 148 145 137 133 120 123 120 120 117 110 105 99 102 110 108 109 111 120 177 175 91 11 215 269 276 284 260 216 242 247
255 248 214 222 197 178 182 187 191 159 141 138 132 126 128 132 131 125 122 122 124 118 117 121 115 101 96 107 138 171 172 144 124 166 180 237 251 250 278 293 283 281 270
260 249 217 182 174 178 183 182 162 144 141 133 135 128 128 126 130 132 129 122 122 123 121 116 110 99 150 126 140 115 142 183 161 168 204 219 227 240 260 276 281 284 266
250 203 161 171 159 143 118 132 136 133 130 126 127 128 125 119 114 109 111 115 114 108 112 111 126 179 62 35 37 62 118 195 196 184 209 210 227 218 252 258 246 233 230
215 180 167 155 141 126 123 136 139 133 131 127 128 124 120 113 112 105 108 108 92 120 134 144 140 110 56 214 163 156 172 190 205 126 60 257 253 241 241 235 234 231 251
167 160 145 136 138 129 133 135 133 131 128 126 127 132 124 121 120 118 106 68 119 142 144 143 154 142 121 129 170 191 199 203 212 155 209 225 228 231 239 251 263 224 243